Location: Budapest
(47.4979°N, 19.0402°E)
Time: 22:14:57
(UTC+01:00)

ISS - Pass Details

Date: 01 October 2020
Orbit: 417 x 420 km, 51.6° (Epoch: 26 October)

Event Time Altitude Azimuth Distance (km) Brightness Sun altitude
Rises 19:30:35 0° 293° (WNW) 2,370 1.8 -12.3°
Reaches altitude 10° 19:32:42 10° 297° (WNW) 1,504 0.3 -12.6°
Maximum altitude 19:36:03 61° 18° (NNE) 481 -3.6 -13.2°
Enters shadow 19:37:46 26° 92° (E) 873 -2.8 -13.5°
